> Flugplatz > 
Stacks Image 3
Aktuelle METAR Daten (Memmingen, Friedrichshafen, Laupheim):
2017/06/27 04:50 EDJA 270450Z 05003KT 9999 FEW004 BKN081 16/16 Q1013
2017/06/27 04:50 EDNY 270450Z 01006KT 340V040 9999 FEW013 BKN100 OVC120 17/16 Q1011
2017/06/27 04:20 ETHL 270420Z 17003KT 9999 -RA SCT040 BKN090 16/15 Q1012 BLU BLU
Sicherheits- und Servicehinweise:

Bitte achten Sie beim Anflug auf mögliche Fall­schirm­springer auf der Nordseite des Platzes, kontaktieren Sie zur Sicherheit den Flugleiter auf Leutkirch INFO 122,875.

Zollabfertigung:
für Ein- und Ausflug bei Voranmeldung mindestens 3 Stunden, nur Personenverkehr – keine Warenabfertigung.

Günstig Tanken:
AvGas 100LL · Jet A1l

Aktuelles:

Sommerflugbetrieb:
Der Flugplatz ist Mo – Sa von 09:00 Uhr
bis SS+30/20:00 Uhr (loc)
So. + Feiertags ab 10:30 Uhr
bis SS+30/20:00 Uhr (loc) geöffnet.

Weitere Informationen finden Sie in unserem Newsbereich.

Nutzen Sie unsere Online-Anmeldung zur Zoll- und Passkontrolle.